Regional Weather Roundup
Issued by NWS

Home | Current Version | Previous Version | Text Only | Print | Product List | Glossary On
Versions: 1 2 3 4 5 6 7 8 9 10 11 12 13 14 15 16 17 18 19 20 21 22 23 24 25 26 27 28 29 30 31 32 33 34 35 36 37 38 39 40 41 42 43 44 45 46 47 48 49 50
000
ASUS45 KABQ 010710
RWRNM
WEATHER ROUNDUP FOR NEW MEXICO
NATIONAL WEATHER SERVICE ALBUQUERQUE NM
1200 AM MST SUN MAR 01 2015

NOTE: "FAIR" MEANS FEW OR NO CLOUDS BELOW 12,000 FEET AGL WITH NO
       SIGNIFICANT WEATHER OR OBSTRUCTIONS TO VISION.

      THIS PRODUCT IS RELEASED AS TWO VERSIONS.  ONE VERSION NEAR
      THE TOP OF THE HOUR CONTAINING PRELIMINARY DATA FROM ALBUQUERQUE
      AND OTHER STATIONS.  A FINAL VERSION WITH ADDITIONAL DATA IS
      ISSUED ABOUT 10 MINUTES AFTER THE HOUR.

NMZ501-503-504-510>518-010800-
NORTHWEST PLATEAU/NORTHCENTRAL MOUNTAINS

CITY           SKY/WX    TMP DP  RH WIND       PRES   REMARKS
FARMINGTON     PTCLDY    32  30  92 NE3       29.97R
LOS ALAMOS     CLOUDY    32  32 100 S8        30.00S WCI  25
SANTA FE       LGT RAIN  33  31  92 CALM      30.01R FOG
TAOS           CLOUDY    28  25  86 CALM      30.01R
ANGEL FIRE     LGT SNOW  33  30  87 SW12G18   29.95F WCI  25

$$
NMZ402-403-502-505>509-010800-
WESTCENTRAL MOUNTAINS/SOUTHWEST MOUNTAINS

CITY           SKY/WX    TMP DP  RH WIND       PRES   REMARKS
GALLUP         LGT RAIN  37  35  92 SW5       30.00R WCI  33
GRANTS         MOCLDY    33  32  98 CALM      30.02S
SILVER CITY    CLEAR     43  36  75 N6        30.07S

$$
NMZ407-409-411-412-010800-
SOUTHERN DESERTS

CITY           SKY/WX    TMP DP  RH WIND       PRES   REMARKS
LORDSBURG      FAIR      46  36  66 SW3       30.01F
DEMING         CLEAR     47  34  60 NW8       30.02S
LAS CRUCES     CLEAR     54  33  45 SW13      30.03S
HOLLOMAN AFB   PTCLDY    47  30  50 S8        30.00R
ALAMOGORDO     PTCLDY    48  32  53 MISG      30.02R
T OR C         PTCLDY    50  37  61 SE8       29.99R

$$
NMZ519>523-010800-
CENTRAL VALLEYS/CENTRAL HIGHLANDS

CITY           SKY/WX    TMP DP  RH WIND       PRES   REMARKS
ALBUQUERQUE    CLOUDY    34  30  85 N6        30.02R WCI  29
DOUBLE EAGLE   CLOUDY    33  30  88 CALM      30.02S
MORIARTY ARPT  CLOUDY    32  30  90 N5        30.02R WCI  28
CLINES CORNERS CLOUDY    37  30  75 SW9       30.00R WCI  30
BELEN          CLOUDY    33  31  93 NW6       30.02S WCI  27
SOCORRO          N/A     37  31  79 N12       30.02R WCI  29

$$
NMZ524>526-539-540-010800-
SOUTHCENTRAL MOUNTAINS

CITY           SKY/WX    TMP DP  RH WIND       PRES   REMARKS
RUIDOSO        PTCLDY    43  30  61 S6        30.08R

$$
NMZ527>531-010800-
NORTHEAST HIGHLANDS/NORTHEAST PLAINS

CITY           SKY/WX    TMP DP  RH WIND       PRES   REMARKS
LAS VEGAS      MIX PCPN  22  21  96 S17       29.97S FOG     WCI   8
RATON          CLOUDY    22  20  92 CALM      29.99R
CLAYTON        CLOUDY    23  21  92 S9        30.05R WCI  13

$$
NMZ532>537-010800-
EASTCENTRAL PLAINS

CITY           SKY/WX    TMP DP  RH WIND       PRES   REMARKS
TUCUMCARI      CLOUDY    27  23  85 SW7       30.11R WCI  19
CANNON AFB     CLOUDY    27  26  98 SW10      30.10S FOG     WCI  17
CLOVIS AIRPORT CLOUDY    27  25  93 SW10      30.11S VSB 1   WCI  17

$$
NMZ028-029-538-010800-
SOUTHEAST PLAINS

CITY           SKY/WX    TMP DP  RH WIND       PRES   REMARKS
ROSWELL        CLOUDY    29  27  92 S12       30.13S FOG     WCI  19
ARTESIA        CLOUDY    30  30 100 S13       30.14F FOG     WCI  20
CARLSBAD       CLOUDY    33  29  85 S8        30.13S WCI  26
HOBBS          FOG       28  28 100 CALM      30.15F VSB 3/4


$$


USA.gov is the U.S. government's official web portal to all federal, state and local government web resources and services.